Preview of NWS' New Version of Forecast
This preview is not operational and should not be used for support decisions.

Regional Weather Roundup (RWR)

Issued by National Weather Service (NWS)

                            
000
ASUS42 KTBW 170117
RWRFL 
FLORIDA REGIONAL WEATHER ROUNDUP
NATIONAL WEATHER SERVICE TAMPA BAY RUSKIN FL
800 PM EST SAT FEB 16 2019

NOTE: "FAIR" INDICATES FEW OR NO CLOUDS BELOW 12,000 FEET WITH NO
SIGNIFICANT WEATHER AND/OR OBSTRUCTIONS TO VISIBILITY.

FLZ001>010-012>015-112-114-115-170200-
PANHANDLE FLORIDA
  
CITY           SKY/WX    TMP DP  RH WIND       PRES   REMARKS
PENSACOLA      FAIR      66  62  87 W3        29.81R                  
PENSACOLA NAS  CLOUDY    65  65 100 SW7       29.81S                  
MILTON NAS     FAIR      63  62  97 S6        29.81                   
CRESTVIEW      FAIR      66  61  84 S6        29.83R                  
DUKE FIELD     FAIR      65  63  94 S7        29.81R                  
VALPARAISO     FAIR      65  65 100 SW6       29.81R                  
PANAMA CITY    FAIR      64  62  93 SE5       29.82S                  
TYNDALL AFB    FAIR      64  63  95 S7        29.84R FOG              
APALACHICOLA   MOCLDY    66  64  93 SW5       29.85R                  

STATION/POSITION SKY/WX   TEMP    WIND        PRES    WAVE   SWELL
                          AIR SEA DIR/SP/G            HT/PER HT/PER
                          (F)     (DEG/KT/KT) (MB)    (FT/S) (FT/S)
30.1N   87.6W              64     180/  6/  8 1009.6F   2/ 5   2/ 5
29.2N   88.2W                     170/  2/  4 1009.8R   2/ 5   2/ 5
PANAMA CITY BEAC           63 62  150/  5/  5 1010.4R
TOWER C                    67     220/ 10/ 10 1011.1R

$$
FLZ011-016>038-118-127-128-134-139-239-170200-
NORTH FLORIDA
  
CITY           SKY/WX    TMP DP  RH WIND       PRES   REMARKS
MARIANNA       FAIR      68  63  84 S8        29.81R                  
TALLAHASSEE    FAIR      70  63  78 SW8       29.84R                  
PERRY          FAIR      66  65  95 SW7       29.88R                  
LIVE OAK       CLOUDY    68  64  88 SW6       29.87R                  
CROSS CITY     FAIR      65  64  96 SW5       29.88R                  
LAKE CITY      MOCLDY    66  61  82 SW7       29.87R                  
GAINESVILLE    FAIR      70  62  76 SW5       29.91R                  
WILLISTON        N/A    N/A N/A N/A MISG        N/A                   
PALATKA        MOCLDY    68  59  73 SW6       29.89R                  
MAYPORT NAS    CLOUDY    72  60  66 SW7       29.85R                  
JACKSONVILLE   CLOUDY    71  59  65 SW5       29.85R                  
JAX NAS        MOCLDY    73  61  65 SW6       29.86R                  
JAX CECIL      CLOUDY    68  61  77 SW5       29.86R                  
FERNANDINA BEA MOCLDY    71  61  70 SW8       29.85R                  
ST AUGUSTINE   FAIR      70  60  70 SW6       29.88R                  
PALM COAST     FAIR      68  59  72 W3        29.89R                  

STATION/POSITION SKY/WX   TEMP    WIND        PRES    WAVE   SWELL
                          AIR SEA DIR/SP/G            HT/PER HT/PER
                          (F)     (DEG/KT/KT) (MB)    (FT/S) (FT/S)
SHELL POINT      NOT AVBL
KEATON BEACH               64     200/  9/ 11 1011.4R
CEDAR KEY                  65     220/  9/ 13 1011.6R
FERNANDINA                 71 59  210/  3/  7 1011.3R
30.7N   81.3W                 60                N/A     2/ 9
MAYPORT                    72 58  240/  8/ 10 1010.9R
31.4N   80.9W              60 58  180/  6/  8 1010.3R   2/ 9   2/ 9
ST AUGUSTINE               72 58  230/  6/  8 1011.1R

$$
FLZ040-043>046-052-053-057-058-063-144-170200-
INTERIOR CENTRAL FLORIDA
  
CITY           SKY/WX    TMP DP  RH WIND       PRES   REMARKS
OCALA          MOCLDY    66  62  87 SW3       29.90R                  
LEESBURG       FAIR      69  62  78 SW5       29.90R                  
SANFORD        FAIR      70  61  73 W5        29.89R                  
ORLANDO EXEC   FAIR      73  62  68 W5        29.90R                  
ORLANDO INTL   FAIR      72  61  68 W8        29.90R                  
KISSIMMEE      FAIR      71  62  73 W6        29.91R                  
WINTER HAVEN   FAIR      73  63  70 W3        29.92R                  
LAKELAND       CLEAR     70  63  78 SW6       29.92R                  
BARTOW         FAIR      70  63  78 SW7       29.90R                  
SEBRING        MOCLDY    72  63  72 W8        29.92R                  
OKEECHOBEE     FAIR      70  59  68 W5        29.91R                  

$$
FLZ041-047-054-059-064-141-147-170200-
EAST CENTRAL FLORIDA
  
CITY           SKY/WX    TMP DP  RH WIND       PRES   REMARKS
DAYTONA BEACH  FAIR      67  61  81 W7        29.89R                  
DELAND         FAIR      70  59  68 W3        29.89R                  
NEW SMYRNA BEA CLEAR     54  59 100 W7        29.89R                  
JFK SPACE CTR  FAIR      71  63  75 W3        29.88                   
TITUSVILLE     PTCLDY    73  61  64 W3        29.89R                  
CAPE CANAVERAL FAIR      71  62  72 W6        29.87R                  
PATRICK AFB    FAIR      72  64  75 W8        29.89R                  
MELBOURNE      FAIR      74  60  61 SW9       29.89R                  
VERO BEACH     FAIR      72  60  66 SW6       29.91R                  
FT PIERCE      FAIR      70  61  73 SW3       29.90R                  
STUART         PTCLDY    75  59  57 CALM      29.92R                  

STATION/POSITION SKY/WX   TEMP    WIND        PRES    WAVE   SWELL
                          AIR SEA DIR/SP/G            HT/PER HT/PER
                          (F)     (DEG/KT/KT) (MB)    (FT/S) (FT/S)
28.5N   80.2W              69     190/  8/ 10 1012.3R   2/ 8   2/ 8
28.9N   78.5W              74 75  210/ 12/ 16 1012.8R   4/ 8   3/ 8
TRIDENT PIER               72 65  240/  5/  6 1013.1R
28.4N   80.5W                 64                N/A     1/ 8

$$
FLZ050-056-061-142-242-148-248-149-249-151-251-155-255-
160-260-170200-
WEST CENTRAL FLORIDA
  
CITY           SKY/WX    TMP DP  RH WIND       PRES   REMARKS
CRYSTAL RIVER  FAIR      66  64  94 CALM      29.90R                  
INVERNESS      FAIR      64  64 100 CALM      29.90R                  
BROOKSVILLE    FAIR      68  64  87 SW6       29.91R                  
CLEARWATER AIR FAIR      68  61  77 S6        29.90R                  
ST PETE CLEARW FAIR      68  60  75 S8        29.90R                  
TAMPA INTL     FAIR      70  62  76 S10       29.91R                  
TAMPA EXEC     FAIR      68  63  83 SW3       29.91S                  
PLANT CITY     FAIR      70  64  83 SW3       29.93R                  
MACDILL AFB    FAIR      68  64  86 S6        29.90R                  
PETER O KNIGHT CLOUDY    70  66  88 SW7       29.91S                  
ST PETERSBURG  MOCLDY    70  60  70 SW6       29.89R                  
SARASOTA       FAIR      71  61  70 S9        29.89S                  
VENICE         FAIR      68  64  88 S6        29.92S                  

STATION/POSITION SKY/WX   TEMP    WIND        PRES    WAVE   SWELL
                          AIR SEA DIR/SP/G            HT/PER HT/PER
                          (F)     (DEG/KT/KT) (MB)    (FT/S) (FT/S)
27.3N   84.2W                 71                N/A     3/ 6
CLEARWATER BEACH           69 67  170/ 12/ 13 1012.5R
MIDDLE TAMPA BAY           69     200/  8/ 10 1012.6F
VENICE                     69 67  160/  7/  7   N/A

$$
FLZ066-069-070-075>078-162-262-165-265-170200-
SOUTHWEST FLORIDA AND KEYS
  
CITY           SKY/WX    TMP DP  RH WIND       PRES   REMARKS
PUNTA GORDA    FAIR      69  61  75 S3        29.93R                  
FT MYERS       FAIR      71  64  78 CALM      29.91R                  
SOUTHWEST INTL FAIR      70  64  81 W3        29.92R                  
NAPLES         FAIR      72  67  84 S5        29.92R                  
MARCO ISLAND   FAIR      70  68  93 S3        29.93R                  
IMMOKALEE      FAIR      70  64  83 CALM      29.90R                  
MARATHON       FAIR      78  67  68 CALM      29.92R                  
KEY WEST NAS   FAIR      75  67  76 SE3       29.92R                  
KEY WEST INTL  FAIR      77  67  71 SE3       29.92R                  

STATION/POSITION SKY/WX   TEMP    WIND        PRES    WAVE   SWELL
                          AIR SEA DIR/SP/G            HT/PER HT/PER
                          (F)     (DEG/KT/KT) (MB)    (FT/S) (FT/S)
NAPLES                     74 71   CALM  /  3 1012.9R
26.0N   85.6W              78 80  190/ 10/ 12 1011.6R   3/ 5   2/ 6
DRY TORTUGAS               76     180/  5/  7 1012.4S
SAND KEY                   76                 1013.0R
SOMBRERO KEY               77                 1012.4R
LONG KEY                   75 75   CALM  /  1 1012.6R
MOLASSES REEF              76 77  310/  1/  3 1013.3R

$$
FLZ067-068-071>074-168-172>174-170200-
SOUTHEAST FLORIDA 
  
CITY           SKY/WX    TMP DP  RH WIND       PRES   REMARKS
W PALM BEACH   MOCLDY    75  65  70 S7        29.91R                  
BOCA RATON     PTCLDY    75  66  73 S6        29.92R                  
FT LAUDER-EXEC FAIR      76  68  76 SW6       29.91R                  
FT LAUDERDALE  MOCLDY    76  69  79 S8        29.91R                  
POMPANO BEACH  MOCLDY    76  67  73 S3        29.92R                  
PEMBROKE PINES FAIR      75  65  70 SW7       29.93R                  
OPA LOCKA      FAIR      76  65  68 SW7       29.92R                  
MIAMI          FAIR      75  68  78 S7        29.92R                  
WEST KENDALL   FAIR      73  67  81 S5        29.92R                  
HOMESTEAD      FAIR      71  67  88 S5        29.91S                  

STATION/POSITION SKY/WX   TEMP    WIND        PRES    WAVE   SWELL
                          AIR SEA DIR/SP/G            HT/PER HT/PER
                          (F)     (DEG/KT/KT) (MB)    (FT/S) (FT/S)
PORT EVERGLADES            75     180/  5/  9 1012.8R
VIRGINIA KEY               75 76  180/  9/ 10 1012.4R
LAKE WORTH                 76 76  230/  6/  8 1013.9R
FOWEY ROCKS                76 76  200/ 15/ 16 1013.5R
SETTLEMENT POINT           76     190/ 13/ 15 1012.8R

$$